Preview of NWS' New Version of Forecast
This preview is not operational and should not be used for support decisions.

Regional Weather Roundup (RWR)

Issued by National Weather Service (NWS)

                            
000
ASUS45 KBOI 211710
RWRID 

IDAHO REGIONAL WEATHER ROUNDUP
NATIONAL WEATHER SERVICE BOISE ID
1100 AM MDT SUN APR 21 2019

NOTE: "FAIR" INDICATES FEW OR NO CLOUDS BELOW 12000 FEET
WITH NO SIGNIFICANT WEATHER AND/OR OBSTRUCTIONS TO VISIBILITY

IDZ012-014-211800-
SOUTHWEST IDAHO

  
CITY           SKY/WX    TMP DP  RH WIND       PRES   REMARKS
BOISE          PTSUNNY   55  40  56 W26G33    29.97R                  
CALDWELL       CLOUDY    52  39  61 W28       30.02R                  
MOUNTAIN HOME  PTSUNNY   54  42  65 NW31G38   29.95R                  
$$

IDZ016-017-211800-
SOUTHCENTRAL IDAHO

  
CITY           SKY/WX    TMP DP  RH WIND       PRES   REMARKS
BURLEY         CLOUDY    46  38  73 W15       29.95R                  
JEROME         CLOUDY    48  40  73 SW18      29.96R                  
TWIN FALLS     CLOUDY    46  38  73 W21       29.97R                  
$$

IDZ019>023-211800-
SOUTHEAST IDAHO

  
CITY           SKY/WX    TMP DP  RH WIND       PRES   REMARKS
IDAHO FALLS    CLOUDY    49  41  74 NW7       29.93R                  
POCATELLO      LGT RAIN  44  42  93 SW15      29.95R                  
REXBURG        CLOUDY    50  42  74 N3        29.92R                  
$$

IDZ006-010-011-018-031-032-211800-
CENTRAL IDAHO MOUNTAINS

  
CITY           SKY/WX    TMP DP  RH WIND       PRES   REMARKS
MCCALL         CLOUDY    45  31  58 N15G22    30.03R                  
HAILEY         CLOUDY    48  43  81 SE6       29.94R                  
STANLEY          N/A     43  34  70 CALM      30.01R                  
SALMON         CLOUDY    49  37  63 NE13      30.05R                  
CHALLIS        CLOUDY    49  37  63 N9        30.00R                  
$$

IDZ002-004-006-007-026-211800-
NORTHERN IDAHO

  
CITY           SKY/WX    TMP DP  RH WIND       PRES   REMARKS
LEWISTON       SUNNY     57  42  57 VRB3      30.15R                  
LOWELL         NOT AVBL                                               
COEUR D'ALENE  SUNNY     52  39  61 NE7       30.16R                  
MULLAN PASS    MOSUNNY   40  32  73 CALM      30.13R                  
$$